Soldotna, AK

8:07 PM AKDT on August 21, 2017 (GMT -0800)
Soldotna

Weather History for PASX - October, 2011

Change the Weather History Date:

Saturday, October 8, 2011

  Actual Average Record
Temperature  
Mean Temperature 40 °F -  
Max Temperature 48 °F 45 °F 56 °F (1993)
Min Temperature 33 °F 32 °F 12 °F (2014)
Degree Days  
Heating Degree Days 24    
Moisture  
Dew Point 37 °F    
Average Humidity 88    
Maximum Humidity 100    
Minimum Humidity 71    
Precipitation  
Precipitation 0.00 in - - ()
Sea Level Pressure  
Sea Level Pressure 29.73 in    
Wind  
Wind Speed 1 mph (NNE)    
Max Wind Speed 7 mph    
Max Gust Speed -    
Visibility 8 miles    
Events      
Averages and records for this station are not official NWS values.
T = Trace of Precipitation, MM = Missing Value Source: NWS Daily Summary

Daily Weather History Graph

Daily Weather History Graph

Search for Another Location

Airport or City:

Trip Planner

Search our weather history database for the weather conditions in past years. The results will help you decide how hot, cold, wet, or windy it might be!

Date:

Astronomy

Oct. 08, 2011 Rise Set
Actual Time 8:27 AM AKDT 7:14 PM AKDT
Civil Twilight 7:44 AM AKDT 7:57 PM AKDT
Nautical Twilight 6:55 AM AKDT 8:45 PM AKDT
Astronomical Twilight 6:05 AM AKDT 9:36 PM AKDT
Moon 5:58 PM AKDT (10/8) 4:45 AM AKDT (10/8)
Length of Visible Light 12h 12m
Length of Day
10h 47m
Waxing Gibbous, 91% of the Moon is Illuminated
Oct 8
Waxing Gibbous
Oct 11
Full
Oct 19
Last Quarter
Oct 26
New
Nov 2
First Quarter

Hourly Weather History & Observations

Time (AKDT) Temp. Windchill Dew Point Humidity Pressure Visibility Wind Dir Wind Speed Gust Speed Precip Events Conditions
12:16 AM 41.0 °F - 39.2 °F 93% 29.75 in 10.0 mi Calm Calm - N/A   Overcast
12:36 AM 41.0 °F - 39.2 °F 93% 29.75 in 10.0 mi Calm Calm - N/A   Overcast
12:56 AM 39.2 °F - 37.4 °F 93% 29.75 in 10.0 mi Calm Calm - N/A   Overcast
1:16 AM 39.2 °F - 37.4 °F 93% 29.75 in 10.0 mi Calm Calm - N/A   Mostly Cloudy
1:36 AM 37.4 °F - 35.6 °F 93% 29.75 in 10.0 mi Calm Calm - N/A   Scattered Clouds
1:56 AM 37.4 °F - 37.4 °F 100% 29.76 in 10.0 mi Calm Calm - N/A   Mostly Cloudy
2:16 AM 37.4 °F - 35.6 °F 93% 29.76 in 10.0 mi Calm Calm - N/A   Overcast
2:36 AM 37.4 °F - 35.6 °F 93% 29.76 in 10.0 mi Calm Calm - N/A   Overcast
2:56 AM 37.4 °F - 37.4 °F 100% 29.76 in 10.0 mi Calm Calm - N/A   Overcast
3:16 AM 39.2 °F - 37.4 °F 93% 29.76 in 10.0 mi Calm Calm - N/A   Overcast
3:36 AM 39.2 °F - 37.4 °F 93% 29.76 in 10.0 mi Calm Calm - N/A   Overcast
3:56 AM 37.4 °F - 37.4 °F 100% 29.76 in 10.0 mi Calm Calm - N/A   Overcast
4:16 AM 39.2 °F - 37.4 °F 93% 29.76 in 10.0 mi Calm Calm - N/A   Overcast
4:36 AM 37.4 °F - 37.4 °F 100% 29.76 in 10.0 mi Calm Calm - N/A   Overcast
4:56 AM 37.4 °F - 35.6 °F 93% 29.76 in 10.0 mi Calm Calm - N/A   Overcast
5:16 AM 37.4 °F - 35.6 °F 93% 29.76 in 10.0 mi Calm Calm - N/A   Overcast
5:36 AM 37.4 °F - 37.4 °F 100% 29.76 in 10.0 mi Calm Calm - N/A   Overcast
5:56 AM 37.4 °F - 35.6 °F 93% 29.76 in 4.0 mi Calm Calm - N/A   Overcast
6:16 AM 37.4 °F - 35.6 °F 93% 29.76 in 1.8 mi Calm Calm - N/A   Overcast
6:36 AM 35.6 °F - 33.8 °F 93% 29.76 in 1.0 mi Calm Calm - N/A   Overcast
6:56 AM 35.6 °F - 33.8 °F 93% 29.76 in 0.5 mi Calm Calm - N/A   Overcast
7:16 AM 33.8 °F - 33.8 °F 100% 29.76 in 0.5 mi Calm Calm - N/A   Overcast
7:36 AM 35.6 °F - 33.8 °F 93% 29.76 in 0.8 mi Calm Calm - N/A   Overcast
7:56 AM 35.6 °F - 33.8 °F 93% 29.75 in 2.5 mi Calm Calm - N/A   Overcast
8:16 AM 37.4 °F - 35.6 °F 93% 29.75 in - Calm Calm - N/A   Overcast
8:36 AM 37.4 °F - 35.6 °F 93% 29.75 in 0.8 mi Calm Calm - N/A   Overcast
8:56 AM 35.6 °F - 35.6 °F 100% 29.75 in 0.2 mi Calm Calm - N/A   Overcast
9:16 AM 37.4 °F - 35.6 °F 93% 29.75 in 0.2 mi Calm Calm - N/A   Overcast
9:36 AM 37.4 °F - 35.6 °F 93% 29.75 in 0.2 mi Calm Calm - N/A   Overcast
9:56 AM 37.4 °F - 37.4 °F 100% 29.75 in 0.2 mi Calm Calm - N/A   Overcast
10:16 AM 37.4 °F - 37.4 °F 100% 29.75 in 2.5 mi Calm Calm - N/A   Overcast
10:36 AM 39.2 °F 37.0 °F 37.4 °F 93% 29.74 in 8.0 mi ESE 3.5 mph - N/A   Overcast
10:56 AM 39.2 °F 37.0 °F 39.2 °F 100% 29.74 in 10.0 mi East 3.5 mph - N/A   Overcast
11:16 AM 41.0 °F 38.0 °F 39.2 °F 93% 29.74 in 10.0 mi East 4.6 mph - N/A   Overcast
11:36 AM 41.0 °F 39.0 °F 39.2 °F 93% 29.74 in 10.0 mi NNE 3.5 mph - N/A   Overcast
11:56 AM 42.8 °F 41.1 °F 39.2 °F 87% 29.74 in 10.0 mi North 3.5 mph - N/A   Overcast
12:16 PM 42.8 °F - 39.2 °F 87% 29.74 in 10.0 mi Calm Calm - N/A   Overcast
12:36 PM 42.8 °F 39.3 °F 39.2 °F 87% 29.74 in 10.0 mi North 5.8 mph - N/A   Mostly Cloudy
12:56 PM 42.8 °F 39.3 °F 39.2 °F 87% 29.74 in 10.0 mi North 5.8 mph - N/A   Mostly Cloudy
1:16 PM 42.8 °F 40.1 °F 39.2 °F 87% 29.74 in 10.0 mi NNE 4.6 mph - N/A   Mostly Cloudy
1:36 PM 42.8 °F - 39.2 °F 87% 29.73 in 10.0 mi Calm Calm - N/A   Mostly Cloudy
1:56 PM 44.6 °F - 39.2 °F 81% 29.73 in 10.0 mi Calm Calm - N/A   Overcast
2:16 PM 44.6 °F - 39.2 °F 81% 29.72 in 10.0 mi Calm Calm - N/A   Scattered Clouds
2:36 PM 46.4 °F - 39.2 °F 76% 29.71 in 10.0 mi Calm Calm - N/A   Partly Cloudy
2:56 PM 46.4 °F - 37.4 °F 71% 29.70 in 10.0 mi Calm Calm - N/A   Partly Cloudy
3:16 PM 48.2 °F - 39.2 °F 71% 29.70 in 10.0 mi NW 6.9 mph - N/A   Mostly Cloudy
3:36 PM 46.4 °F 44.3 °F 39.2 °F 76% 29.69 in 10.0 mi North 4.6 mph - N/A   Overcast
3:56 PM 46.4 °F 45.2 °F 37.4 °F 71% 29.69 in 10.0 mi North 3.5 mph - N/A   Overcast
4:16 PM 46.4 °F - 39.2 °F 76% 29.68 in 10.0 mi Calm Calm - N/A   Overcast
4:36 PM 46.4 °F 44.3 °F 37.4 °F 71% 29.67 in 10.0 mi NNE 4.6 mph - N/A   Mostly Cloudy
4:56 PM 46.4 °F 45.2 °F 37.4 °F 71% 29.66 in 10.0 mi North 3.5 mph - N/A   Partly Cloudy
5:16 PM 46.4 °F - 37.4 °F 71% 29.66 in 10.0 mi Calm Calm - N/A   Clear
5:36 PM 46.4 °F - 37.4 °F 71% 29.65 in 10.0 mi Calm Calm - N/A   Clear
6:16 PM 46.4 °F 45.2 °F 37.4 °F 71% 29.65 in 10.0 mi North 3.5 mph - N/A   Scattered Clouds
6:36 PM 46.4 °F 43.5 °F 37.4 °F 71% 29.64 in 10.0 mi NNE 5.8 mph - N/A   Mostly Cloudy
6:56 PM 46.4 °F - 37.4 °F 71% 29.64 in 10.0 mi Calm Calm - N/A   Overcast
7:16 PM 46.4 °F - 37.4 °F 71% 29.64 in 10.0 mi Calm Calm - N/A   Overcast
7:36 PM 44.6 °F - 37.4 °F 76% 29.64 in 10.0 mi Calm Calm - N/A   Overcast
7:56 PM 44.6 °F - 37.4 °F 76% 29.63 in 10.0 mi Calm Calm - N/A   Overcast
8:16 PM 44.6 °F - 37.4 °F 76% 29.63 in 10.0 mi Calm Calm - N/A   Overcast
8:36 PM 42.8 °F - 37.4 °F 81% 29.62 in 10.0 mi Calm Calm - N/A   Overcast
8:56 PM 41.0 °F - 35.6 °F 81% 29.62 in 10.0 mi Calm Calm - N/A   Overcast
9:16 PM 39.2 °F - 35.6 °F 87% 29.62 in 10.0 mi Calm Calm - N/A   Mostly Cloudy
9:36 PM 39.2 °F - 35.6 °F 87% 29.62 in 10.0 mi Calm Calm - N/A   Overcast
9:56 PM 37.4 °F - 35.6 °F 93% 29.61 in 10.0 mi Calm Calm - N/A   Overcast
10:16 PM 37.4 °F - 35.6 °F 93% 29.61 in 10.0 mi Calm Calm - N/A   Overcast
10:36 PM 37.4 °F - 35.6 °F 93% 29.60 in 10.0 mi Calm Calm - N/A   Mostly Cloudy
11:16 PM 35.6 °F - 32.0 °F 87% 29.60 in 10.0 mi Calm Calm - N/A   Clear
11:36 PM 33.8 °F - 32.0 °F 93% 29.60 in 10.0 mi Calm Calm - N/A   Clear
11:56 PM 33.8 °F - 32.0 °F 93% 29.59 in - Calm Calm - N/A   Unknown